{"data":{"norad_id":53467,"intl_designator":"2022-099C","name":"STARLINK-4394","alt_names":[],"object_type":"PAYLOAD","status":"ACTIVE","operator":null,"country":"US","launch_date":"2022-08-12","launch_site_code":"AFWTR","launch_vehicle":null,"mission":null,"orbit_class":"UNKNOWN","rcs_meters":null,"size_class":null,"mass_kg":null,"dimensions":null,"purposes":["comms"],"wikipedia_slug":null,"has_3d_model":false,"image_url":null,"decayed_at":null,"tle_current":{"epoch":"2026-09-21T00:00:02.000160Z","epoch_age_seconds":35327,"freshness":"FRESH","line1":"1 53467U 22099C   26264.00002315  .01180526  00000+0  23841-1 0  9999","line2":"2 53467  97.5424  34.2316 0001738  95.2213 317.0394 15.43695411  5885","mean_motion":15.43695411,"eccentricity":0.0001738,"inclination_deg":97.5424,"raan_deg":34.2316,"arg_perigee_deg":95.2213,"mean_anomaly_deg":317.0394,"bstar":0.023841,"rev_number":588,"period_min":93.282650822106,"perigee_km":434.02988766017,"apogee_km":436.39820848448,"semimajor_km":6813.3510480723,"source":"CELESTRAK","updated_at":"2026-09-21T09:00:32.886119Z"}}}